Location: Quedlinburg
(51.7921°N, 11.1414°E)
Time: 16:42:11
(UTC+02:00)

CUBESAT XI-V - Pass Details

Date: 22 March 2026
Orbit: 643 x 664 km, 98.3° (Epoch: 17 April)

Event Time Altitude Azimuth Distance (km) Brightness Sun altitude
Exits shadow 03:17:21 53° 341° (NNW) 801 ? -26.0°
Drops below altitude 10° 03:20:49 10° 345° (NNW) 2,062 ? -25.6°
Sets 03:23:02 0° 345° (NNW) 2,975 ? -25.3°
